MicroStrategy Price to Free Cash Flow Ratio 2010-2024 | MSTR

Historical price to free cash flow ratio values for MicroStrategy (MSTR) since 2010. For more information on how our historical price data is adjusted see the Stock Price Adjustment Guide.
MicroStrategy Price to Free Cash Flow Ratio Historical Data
Date Stock Price TTM FCF per Share Price to FCF Ratio
2024-07-12 1396.76 0.00
2024-03-31 1704.56 $-0.37 0.00
2023-12-31 631.62 $0.59 1070.54
2023-09-30 328.28 $-1.04 0.00
2023-06-30 342.42 $-0.72 0.00
2023-03-31 292.32 $-1.22 0.00
2022-12-31 141.57 $0.06 2212.03
2022-09-30 212.26 $1.95 108.70
2022-06-30 164.30 $3.25 50.49
2022-03-31 486.32 $6.45 75.35
2021-12-31 544.49 $9.09 59.87
2021-09-30 578.40 $11.21 51.60
2021-06-30 664.50 $10.29 64.60
2021-03-31 678.80 $8.78 77.30
2020-12-31 388.55 $5.16 75.30
2020-09-30 150.56 $3.56 42.24
2020-06-30 118.29 $3.56 33.26
2020-03-31 118.10 $5.76 20.50
2019-12-31 142.63 $4.91 29.06
2019-09-30 148.37 $2.87 51.73
2019-06-30 143.31 $2.49 57.64
2019-03-31 144.25 $0.79 181.61
2018-12-31 127.75 $0.33 385.60
2018-09-30 140.62 $3.98 35.34
2018-06-30 127.75 $5.16 24.75
2018-03-31 128.99 $5.74 22.48
2017-12-31 131.30 $6.44 20.39
2017-09-30 127.71 $5.46 23.39
2017-06-30 191.67 $6.78 28.27
2017-03-31 187.80 $7.21 26.06
2016-12-31 197.40 $9.40 21.00
2016-09-30 167.44 $10.33 16.21
2016-06-30 175.02 $10.65 16.43
2016-03-31 179.72 $11.98 15.01
2015-12-31 179.29 $11.84 15.14
2015-09-30 196.47 $8.79 22.34
2015-06-30 170.08 $5.43 31.31
2015-03-31 169.19 $2.92 57.89
2014-12-31 162.40 $-0.55 0.00
2014-09-30 130.84 $1.46 89.57
2014-06-30 140.62 $4.50 31.21
2014-03-31 115.39 $3.38 34.12
2013-12-31 124.24 $1.19 104.36
2013-09-30 103.76 $0.46 225.66
2013-06-30 86.96 $-0.57 0.00
2013-03-31 101.08 $-1.01 0.00
2012-12-31 93.38 $1.08 86.13
2012-09-30 134.07 $2.44 55.04
2012-06-30 129.86 $0.23 560.71
2012-03-31 140.00 $-2.51 0.00
2011-12-31 108.32 $-1.97 0.00
2011-09-30 114.07 $-2.31 0.00
2011-06-30 162.68 $-1.25 0.00
2010-12-31 85.47 $4.87 17.55
2010-09-30 86.61 $7.81 11.08
2010-06-30 75.09 $8.09 9.28
2010-03-31 85.07 $9.75 8.73
2009-12-31 94.02 $8.73 10.77
2011-03-31 134.48 $5.94 22.64
Sector Industry Market Cap Revenue
Computer and Technology Computer Software $24.774B $0.496B
MicroStrategy Incorporated, a leading worldwide provider of business intelligence software, today announced that GT Nexus has selected MicroStrategy to power the customer-facing analytics and reporting capabilities on its Global Logistics portal. The GT Nexus portal is an on demand technology platform that is used by importers, exporters, transportation carriers, suppliers, banks, and other partners to manage goods that are moving around the world. The GT Nexus system captures and stores hard-to-get data associated with global supply chains, and then fuels a range of Web applications that can be used by constituents to lower supply chain costs and improve control. MicroStrategy will help GT Nexus to deliver a wide range of analytics and reporting capabilities to its customers, which include Home Depot, Kmart, Xerox, Weyerhaeuser, and American Eagle Outfitters.
Stock Name Country Market Cap PE Ratio
Microsoft (MSFT) United States $3370.922B 39.27
Oracle (ORCL) United States $398.966B 32.39
Adobe (ADBE) United States $247.883B 40.10
Salesforce (CRM) United States $246.097B 36.65
Intuit (INTU) United States $179.455B 55.92
Synopsys (SNPS) United States $94.082B 64.84
Cadence Design Systems (CDNS) United States $85.996B 81.78
Autodesk (ADSK) United States $54.621B 49.79
Dassault Systemes SA (DASTY) France $50.245B 32.64
ANSYS (ANSS) United States $28.753B 53.21
PTC (PTC) United States $21.873B 58.01
SS&C Technologies Holdings (SSNC) United States $16.153B 15.30
Manhattan Associates (MANH) United States $14.803B 78.57
Descartes Systems Group (DSGX) Canada $8.629B 72.19
Open Text (OTEX) Canada $8.513B 8.66
Trend Micro (TMICY) Japan $6.203B 44.92
CommVault Systems (CVLT) United States $5.383B 87.23
Pegasystems (PEGA) United States $5.082B 44.94
ACI Worldwide (ACIW) United States $4.233B 20.28
Blackbaud (BLKB) United States $3.995B 34.40
Progress Software (PRGS) United States $2.358B 15.15
Sapiens (SPNS) Israel $2.063B 28.14
Verint Systems (VRNT) United States $1.976B 18.51
BlackBerry (BB) Canada $1.476B 0.00
PROS Holdings (PRO) United States $1.176B 0.00
Simulations Plus (SLP) United States $0.840B 62.64
Rand Worldwide (RWWI) United States $0.663B 0.00
Magic Software Enterprises (MGIC) Israel $0.541B 11.48
American Software (AMSWA) United States $0.318B 27.31
Canaan (CAN) China $0.300B 0.00
OptimizeRx (OPRX) United States $0.186B 0.00
Rigetti Computing (RGTI) United States $0.186B 0.00
Neonode (NEON) Sweden $0.036B 0.00
Icad Inc (ICAD) United States $0.035B 0.00
NetSol Technologies (NTWK) United States $0.031B 0.00
Wetouch Technology (WETH) $0.025B 0.00
Smith Micro Software (SMSI) United States $0.022B 0.00
Hanryu Holdings (HRYU) South Korea $0.013B 0.00
GSE Systems (GVP) United States $0.012B 0.00
SAP SE (SAP) Germany $0.000B 52.46